Location: Florence
(33.9745°N, 118.2481°W)
Time: 19:45:11
(UTC+00:00)

Cosmos 1371 Rocket - Pass Details

Date: 23 March 2023
Orbit: 752 x 788 km, 74.0° (Epoch: 05 June)

Event Time Altitude Azimuth Distance (km) Brightness Sun altitude
Rises 13:07:33 0° 340° (NNW) 3,208 7.1 -10.2°
Reaches altitude 10° 13:09:56 10° 338° (NNW) 2,279 6.3 -9.7°
Maximum altitude 13:15:04 70° 255° (WSW) 798 3.9 -8.6°
Drops below altitude 10° 13:20:10 10° 172° (S) 2,271 6.5 -7.6°
Sets 13:22:32 0° 170° (S) 3,196 7.3 -7.1°
